Simultaneous Nadir Overpasses (SNOs) Predictions

Prediction of SNOs between NOAA-20 and PACE Satellite Orbit:

Table of predicted SNOs for the next 14.0 days since TLE Epoch: 10/19/2024
Index Date (NOAA-20) Time (NOAA-20) Lat,Lon (NOAA-20) SZA (NOAA-20 ) Date (PACE) Time (PACE) Lat,Lon (PACE) SZA (PACE ) Distance(km) Time Diff (sec)
1 10/20/2024 19:41:17 79.76,-151.98 92.04 10/20/2024 19:41:13 79.77,-152.12 92.06 2.74 4
2 10/22/2024 23:16:59 -79.80, -26.27 87.15 10/22/2024 23:17:07 -79.81, -26.39 87.13 2.67 8
3 10/25/2024 02:52:44 79.90, 98.89 93.76 10/25/2024 02:53:01 79.89, 99.04 93.73 2.94 17
4 10/27/2024 06:28:23 -79.86,-134.69 85.59 10/27/2024 06:28:50 -79.86,-134.66 85.60 0.70 27
5 10/27/2024 07:19:02 79.65, 34.50 94.08 10/27/2024 07:17:53 79.65, 34.57 94.09 1.63 69
6 10/29/2024 10:04:03 79.83, -8.29 95.07 10/29/2024 10:04:38 79.83, -8.43 95.07 2.90 35
7 10/29/2024 10:54:41 -79.63, 160.81 85.26 10/29/2024 10:53:41 -79.63, 160.72 85.22 1.98 60
8 10/31/2024 13:39:44 -79.87, 117.39 84.17 10/31/2024 13:40:26 -79.87, 117.32 84.18 1.25 42



Historial Predications of SNOs between NOAA-20 and PACE
